Location: De Platvoet
(52.2667°N, 6.1667°E)
Time: 08:43:01
(UTC+00:00)

Helios 1B rocket - Pass Details

Date: 15 May 2026
Orbit: 459 x 466 km, 98.2° (Epoch: 6 June)

Event Time Altitude Azimuth Distance (km) Brightness Sun altitude
Exits shadow 22:56:27 29° 235° (SW) 905 3.2 -18.3°
Maximum altitude 22:57:14 32° 262° (W) 836 3.2 -18.3°
Drops below altitude 10° 23:00:27 10° 327° (NNW) 1,647 5.7 -18.4°
Sets 23:02:40 0° 338° (NNW) 2,528 7.2 -18.4°
